Location: Honolulu
(21.3069°N, 157.8583°W)
Time: 14:35:59
(UTC-10:00)

Vanguard 1 - Pass Details

Date: 16 September 2025
Orbit: 654 x 3817 km, 34.2° (Epoch: 19 May)

Event Time Altitude Azimuth Distance (km) Brightness Sun altitude
Rises 19:37:06 0° 276° (W) 7,778 16.5 -15.7°
Reaches altitude 10° 19:45:36 10° 259° (W) 6,911 15.4 -17.7°
Maximum altitude 19:58:05 17° 226° (SW) 6,107 14.5 -20.5°
Drops below altitude 10° 20:09:30 10° 192° (SSW) 6,140 14.1 -23.1°
Sets 20:16:31 0° 173° (S) 6,598 14.1 -24.7°
